[[{"header":{"parameterUnit":"m.s-1","parameterCategory":2,"la1":30.2992,"la2":30.254,"lo1":-89.0895,"lo2":-89.0443,"dy":0.0025,"dx":0.0025,"nx":19,"ny":19,"refTime":"2026-04-05T09:00:00:Z","depth":"0","parameterNumber":2,"parameterNumberName":"U-component_of_CURRENTS"},"data":[0,0,0,-0.18,-0.18,-0.1815,-0.1815,-0.1796,-0.1796,0,0,0,0,0,0,0,0,0,0,0,-0.1782,-0.1782,-0.18,-0.18,-0.1815,-0.1815,-0.1796,-0.1796,0,0,0,0,0,0,0,0,0,0,0,-0.1782,-0.1782,-0.1782,-0.1801,-0.1815,-0.1815,-0.1796,-0.1791,0,0,0,0,0,0,0,0,0,0,-0.178,-0.1765,-0.1782,-0.1782,-0.1801,-0.1816,-0.1815,-0.1791,-0.1791,-0.1782,0,-0.1785,0,-0.18,-0.1794,-0.1794,0,0,0,-0.1788,-0.1765,-0.1783,-0.1782,-0.1801,-0.1816,-0.1805,-0.1791,-0.1792,-0.1782,-0.1785,-0.1785,-0.18,-0.1794,-0.1794,-0.1807,-0.1808,0,0,-0.1787,-0.1771,-0.1782,-0.1783,-0.1806,-0.1805,-0.1806,-0.1792,-0.1783,-0.1785,-0.1785,-0.18,-0.1794,-0.1794,-0.1807,-0.1807,0,0,0,-0.1793,-0.177,-0.1788,-0.1783,-0.1795,-0.1805,-0.1807,-0.1783,-0.1793,-0.1785,-0.1799,-0.1794,-0.1794,-0.1807,-0.1807,-0.1822,0,0,0,-0.1792,-0.1775,-0.1788,-0.1776,-0.1795,-0.1793,-0.1798,-0.1794,-0.1794,-0.18,-0.1794,-0.1794,-0.1806,-0.1807,-0.1821,-0.1824,0,0,0,-0.1781,-0.1774,-0.1779,-0.1776,-0.1791,-0.1794,-0.1802,-0.1794,-0.1803,-0.1794,-0.1794,-0.1806,-0.1807,-0.182,-0.1822,-0.1882,0,0,0,-0.176,-0.1762,-0.1778,-0.1787,-0.1791,-0.1815,-0.1803,-0.1812,-0.1807,-0.1794,-0.1807,-0.1807,-0.182,-0.1822,-0.1881,-0.1931,-0.1943,0,0,-0.1754,-0.1761,-0.177,-0.1785,-0.1806,-0.1812,-0.1831,-0.1821,-0.1813,-0.1805,-0.1806,-0.1822,-0.1822,-0.1882,-0.1966,-0.1977,0,0,0,-0.1763,-0.1761,-0.1772,-0.1787,-0.1815,-0.1834,-0.1835,-0.1839,-0.1838,-0.1816,-0.183,-0.183,-0.1867,-0.1894,-0.1903,-0.1993,-0.181,-0.181,-0.181,-0.1708,-0.1741,-0.175,-0.1789,-0.181,-0.1846,-0.1861,-0.1866,-0.1853,-0.1863,-0.1849,-0.1911,-0.1939,-0.1946,-0.2038,-0.1858,-0.1858,-0.1858,-0.1858,-0.1682,-0.1677,-0.173,-0.1749,-0.1795,-0.1814,-0.1869,-0.1877,-0.1911,-0.1879,-0.1916,-0.1916,-0.1957,-0.2051,-0.1859,-0.1859,-0.1859,-0.1859,-0.1859,-0.1622,-0.1624,-0.1652,-0.1689,-0.173,-0.179,-0.1849,-0.188,-0.1919,-0.1946,-0.2006,-0.2006,-0.2087,-0.1976,-0.1976,-0.1976,-0.1977,-0.1977,-0.1977,-0.1535,-0.1567,-0.157,-0.1627,-0.165,-0.1714,-0.1832,-0.1899,-0.2001,-0.2031,-0.2032,-0.2126,-0.1947,-0.194,-0.1981,-0.1981,-0.198,-0.198,-0.1979,-0.1426,-0.1456,-0.1461,-0.1483,-0.1563,-0.1642,-0.1787,-0.1991,-0.208,-0.2147,-0.2258,-0.2094,-0.2102,-0.2095,-0.2092,-0.2171,-0.2171,-0.2171,-0.2171,-0.1336,-0.1361,-0.1356,-0.1385,-0.1458,-0.1595,-0.1804,-0.2045,-0.2275,-0.237,-0.2388,-0.2376,-0.2364,-0.2386,-0.2372,-0.2374,-0.2523,-0.2524,-0.2524,-0.1247,-0.1276,-0.1246,-0.1315,-0.1401,-0.156,-0.179,-0.2175,-0.2482,-0.2546,-0.2509,-0.2494,-0.2478,-0.2452,-0.2484,-0.2458,-0.2458,0,0]},{"header":{"parameterUnit":"m.s-1","parameterCategory":2,"la1":30.2992,"la2":30.254,"lo1":-89.0895,"lo2":-89.0443,"dy":0.0025,"dx":0.0025,"nx":19,"ny":19,"refTime":"2026-04-05T09:00:00:Z","depth":"0","parameterNumber":3,"parameterNumberName":"V-component_of_CURRENTS"},"data":[0,0,0,-0.0384,-0.0382,-0.0292,-0.0292,-0.0166,-0.0165,0,0,0,0,0,0,0,0,0,0,0,-0.0419,-0.0419,-0.0384,-0.0382,-0.0293,-0.0292,-0.0166,-0.0165,0,0,0,0,0,0,0,0,0,0,0,-0.0419,-0.0419,-0.0419,-0.0382,-0.0293,-0.0292,-0.0167,-0.0234,0,0,0,0,0,0,0,0,0,0,-0.0321,-0.0359,-0.0419,-0.0419,-0.0381,-0.0293,-0.0292,-0.0237,-0.023,-0.0207,0,-0.0204,0,-0.0184,-0.0158,-0.0157,0,0,0,-0.037,-0.0365,-0.0344,-0.0419,-0.0381,-0.0293,-0.0329,-0.0233,-0.0225,-0.0198,-0.0202,-0.0198,-0.0182,-0.0157,-0.0156,-0.0067,-0.0067,0,0,-0.0375,-0.0395,-0.035,-0.0339,-0.0371,-0.0332,-0.0327,-0.0228,-0.0223,-0.0202,-0.0194,-0.018,-0.0156,-0.0155,-0.0067,-0.0067,0,0,0,-0.0397,-0.0399,-0.038,-0.0344,-0.033,-0.033,-0.0324,-0.0227,-0.0222,-0.0193,-0.0179,-0.0156,-0.0154,-0.0068,-0.0067,-0.0115,0,0,0,-0.0399,-0.0413,-0.0382,-0.0392,-0.0333,-0.0279,-0.0325,-0.0229,-0.0217,-0.0179,-0.0156,-0.0153,-0.0068,-0.0067,-0.0115,-0.0149,0,0,0,-0.0421,-0.0414,-0.0409,-0.0394,-0.036,-0.028,-0.0268,-0.0226,-0.0209,-0.0157,-0.0153,-0.0068,-0.0067,-0.0114,-0.0146,-0.0141,0,0,0,-0.0437,-0.0447,-0.041,-0.041,-0.0361,-0.0316,-0.0269,-0.0224,-0.0184,-0.0155,-0.0068,-0.0067,-0.0113,-0.0145,-0.014,-0.0179,-0.0187,0,0,-0.0463,-0.0451,-0.045,-0.0414,-0.0397,-0.0327,-0.0289,-0.0219,-0.017,-0.0097,-0.0095,-0.0115,-0.0146,-0.0141,-0.0161,-0.017,0,0,0,-0.0466,-0.047,-0.0456,-0.0434,-0.0385,-0.0337,-0.0261,-0.0217,-0.0148,-0.0146,-0.0095,-0.0113,-0.0108,-0.0129,-0.0135,0.0062,-0.0066,-0.0066,-0.0066,-0.0535,-0.0504,-0.0506,-0.0464,-0.0426,-0.0336,-0.0287,-0.0211,-0.0163,-0.0138,-0.0137,-0.0147,-0.0169,-0.0175,0.0029,-0.0112,-0.0112,-0.0112,-0.0112,-0.0586,-0.0587,-0.0546,-0.0538,-0.0474,-0.043,-0.0311,-0.0262,-0.0185,-0.0154,-0.0146,-0.016,-0.0185,0.0036,-0.0115,-0.0114,-0.0114,-0.0114,-0.0114,-0.0634,-0.0631,-0.0623,-0.0609,-0.0575,-0.0489,-0.0448,-0.0342,-0.0242,-0.0226,-0.0221,-0.0221,-0.0039,-0.0216,-0.0216,-0.0216,-0.0216,-0.0216,-0.0216,-0.0682,-0.0674,-0.0697,-0.0677,-0.0678,-0.064,-0.0523,-0.0466,-0.0354,-0.028,-0.028,-0.0015,-0.0179,-0.0189,-0.0218,-0.0218,-0.0218,-0.0217,-0.0217,-0.0721,-0.0726,-0.0773,-0.0789,-0.0794,-0.0829,-0.0704,-0.0596,-0.0493,-0.0448,-0.0083,-0.0291,-0.0277,-0.0271,-0.0282,-0.0334,-0.0334,-0.0335,-0.0335,-0.0753,-0.0756,-0.0839,-0.0891,-0.0923,-0.0913,-0.095,-0.078,-0.0372,-0.0139,-0.0016,0.0028,0.0024,0.0061,0.0059,0.0058,0.0093,0.0094,0.0095,-0.0773,-0.0808,-0.0881,-0.0942,-0.099,-0.1035,-0.1121,-0.0949,-0.0252,0.0138,0.0272,0.0254,0.0347,0.0324,0.0403,0.0384,0.0388,0,0]}],[{"header":{"parameterUnit":"m.s-1","parameterCategory":2,"la1":30.2992,"la2":30.254,"lo1":-89.0895,"lo2":-89.0443,"dy":0.0025,"dx":0.0025,"nx":19,"ny":19,"refTime":"2026-04-05T09:00:00:Z","depth":"2","parameterNumber":2,"parameterNumberName":"U-component_of_CURRENTS"},"data":[0,0,0,-0.1751,-0.1752,-0.1769,-0.1769,-0.1747,-0.1747,0,0,0,0,0,0,0,0,0,0,0,-0.1733,-0.1733,-0.1751,-0.1752,-0.1769,-0.1769,-0.1747,-0.1747,0,0,0,0,0,0,0,0,0,0,0,-0.1733,-0.1733,-0.1733,-0.1752,-0.1769,-0.1769,-0.1747,-0.1742,0,0,0,0,0,0,0,0,0,0,-0.1729,-0.1716,-0.1733,-0.1733,-0.1752,-0.1769,-0.1769,-0.1742,-0.1742,-0.1731,0,-0.1736,0,-0.1751,-0.1746,-0.1746,0,0,0,-0.1738,-0.1715,-0.1733,-0.1733,-0.1752,-0.1769,-0.1757,-0.1742,-0.1743,-0.1731,-0.1735,-0.1735,-0.1751,-0.1746,-0.1746,-0.1758,-0.1759,0,0,-0.1738,-0.1722,-0.1733,-0.1733,-0.1758,-0.1757,-0.1758,-0.1743,-0.1735,-0.1735,-0.1735,-0.1751,-0.1746,-0.1745,-0.1758,-0.1758,0,0,0,-0.1744,-0.1721,-0.1739,-0.1733,-0.1746,-0.1758,-0.1759,-0.1735,-0.1745,-0.1735,-0.175,-0.1745,-0.1745,-0.1758,-0.1758,-0.1771,0,0,0,-0.1743,-0.1727,-0.1739,-0.1728,-0.1747,-0.1746,-0.1751,-0.1745,-0.1745,-0.175,-0.1745,-0.1745,-0.1758,-0.1758,-0.177,-0.1772,0,0,0,-0.1732,-0.1725,-0.1731,-0.1727,-0.1744,-0.1747,-0.1754,-0.1746,-0.1755,-0.1746,-0.1745,-0.1757,-0.1758,-0.1769,-0.1771,-0.183,0,0,0,-0.1711,-0.1714,-0.173,-0.1739,-0.1744,-0.1768,-0.1755,-0.1764,-0.1759,-0.1745,-0.1758,-0.1758,-0.1769,-0.177,-0.1828,-0.186,-0.187,0,0,-0.1707,-0.1713,-0.1722,-0.1737,-0.1758,-0.1764,-0.1782,-0.1772,-0.1765,-0.1756,-0.1757,-0.177,-0.1771,-0.1829,-0.1897,-0.1906,0,0,0,-0.1716,-0.1714,-0.1725,-0.174,-0.1767,-0.1785,-0.1787,-0.179,-0.1789,-0.1769,-0.178,-0.178,-0.1817,-0.1833,-0.184,-0.1761,-0.1761,-0.1761,-0.1761,-0.1663,-0.1695,-0.1704,-0.1741,-0.1762,-0.1797,-0.1811,-0.1815,-0.1803,-0.1813,-0.1798,-0.1859,-0.1875,-0.1881,-0.1808,-0.1808,-0.1808,-0.1808,-0.1808,-0.1638,-0.1634,-0.1685,-0.1703,-0.1748,-0.1766,-0.1817,-0.1825,-0.1857,-0.1827,-0.1863,-0.1853,-0.189,-0.181,-0.1809,-0.1809,-0.1809,-0.1809,-0.1809,-0.1581,-0.1582,-0.161,-0.1645,-0.1685,-0.1742,-0.1797,-0.1827,-0.1865,-0.1891,-0.194,-0.194,-0.1878,-0.1921,-0.1921,-0.1922,-0.1922,-0.1922,-0.1922,-0.1494,-0.1526,-0.1529,-0.1584,-0.1607,-0.1668,-0.1782,-0.1845,-0.1938,-0.1961,-0.1962,-0.1898,-0.1894,-0.1886,-0.1926,-0.1926,-0.1925,-0.1925,-0.1924,-0.1385,-0.1416,-0.1421,-0.1443,-0.152,-0.1577,-0.1731,-0.1921,-0.201,-0.2069,-0.2019,-0.2015,-0.2022,-0.2016,-0.2011,-0.2083,-0.2083,-0.2083,-0.2083,-0.1296,-0.132,-0.1316,-0.1345,-0.1414,-0.1524,-0.1666,-0.1797,-0.1943,-0.1939,-0.1944,-0.1896,-0.1895,-0.1891,-0.1888,-0.1878,-0.1915,-0.1914,-0.1913,-0.1206,-0.1235,-0.1206,-0.1275,-0.1356,-0.147,-0.1567,-0.1633,-0.174,-0.1896,-0.1807,-0.2092,-0.2037,-0.2029,-0.2032,-0.2023,-0.2012,0,0]},{"header":{"parameterUnit":"m.s-1","parameterCategory":2,"la1":30.2992,"la2":30.254,"lo1":-89.0895,"lo2":-89.0443,"dy":0.0025,"dx":0.0025,"nx":19,"ny":19,"refTime":"2026-04-05T09:00:00:Z","depth":"2","parameterNumber":3,"parameterNumberName":"V-component_of_CURRENTS"},"data":[0,0,0,-0.0306,-0.0305,-0.0218,-0.0217,-0.0089,-0.0088,0,0,0,0,0,0,0,0,0,0,0,-0.0341,-0.0341,-0.0306,-0.0304,-0.0218,-0.0217,-0.0089,-0.0088,0,0,0,0,0,0,0,0,0,0,0,-0.0341,-0.0341,-0.0341,-0.0304,-0.0218,-0.0217,-0.009,-0.0156,0,0,0,0,0,0,0,0,0,0,-0.0241,-0.028,-0.0341,-0.0341,-0.0304,-0.0218,-0.0217,-0.0159,-0.0152,-0.0128,0,-0.0126,0,-0.0107,-0.008,-0.008,0,0,0,-0.0292,-0.0286,-0.0265,-0.0341,-0.0303,-0.0218,-0.0253,-0.0155,-0.0147,-0.0118,-0.0124,-0.0119,-0.0105,-0.008,-0.0079,0.0011,0.0011,0,0,-0.0296,-0.0317,-0.0271,-0.0261,-0.0295,-0.0256,-0.0251,-0.015,-0.0146,-0.0124,-0.0116,-0.0103,-0.0079,-0.0078,0.0011,0.0011,0,0,0,-0.0319,-0.0321,-0.0302,-0.0266,-0.0253,-0.0254,-0.0248,-0.015,-0.0145,-0.0115,-0.0101,-0.0078,-0.0077,0.0011,0.0011,-0.0038,0,0,0,-0.0321,-0.0335,-0.0305,-0.0315,-0.0256,-0.0202,-0.025,-0.0152,-0.014,-0.0102,-0.0078,-0.0076,0.0011,0.0011,-0.0037,-0.0073,0,0,0,-0.0342,-0.0336,-0.0332,-0.0317,-0.0284,-0.0204,-0.0192,-0.0149,-0.0132,-0.008,-0.0075,0.0011,0.0011,-0.0036,-0.007,-0.0067,0,0,0,-0.0358,-0.037,-0.0333,-0.0333,-0.0286,-0.024,-0.0193,-0.0148,-0.0108,-0.0078,0.0011,0.0011,-0.0036,-0.0069,-0.0066,-0.0103,-0.0111,0,0,-0.0385,-0.0373,-0.0372,-0.0337,-0.032,-0.025,-0.0211,-0.0141,-0.0093,-0.0019,-0.0016,-0.0038,-0.007,-0.0067,-0.0086,-0.0095,0,0,0,-0.0388,-0.0393,-0.0379,-0.0357,-0.0307,-0.0259,-0.0183,-0.014,-0.0071,-0.0069,-0.0018,-0.0036,-0.0033,-0.0052,-0.0059,0.0013,0.0013,0.0013,0.0013,-0.0459,-0.0427,-0.0429,-0.0386,-0.0348,-0.0258,-0.021,-0.0134,-0.0085,-0.0062,-0.0062,-0.0075,-0.0095,-0.0101,-0.0036,-0.0036,-0.0036,-0.0036,-0.0037,-0.0511,-0.0511,-0.047,-0.0462,-0.0397,-0.0353,-0.0234,-0.0186,-0.0111,-0.0079,-0.0073,-0.0085,-0.0111,-0.004,-0.0039,-0.0039,-0.0039,-0.0038,-0.0038,-0.056,-0.0556,-0.0549,-0.0534,-0.05,-0.0414,-0.0375,-0.0269,-0.0172,-0.0157,-0.0151,-0.0151,-0.0114,-0.0148,-0.0148,-0.0148,-0.0148,-0.0148,-0.0148,-0.0609,-0.0601,-0.0625,-0.0604,-0.0606,-0.0568,-0.0452,-0.0397,-0.0287,-0.0212,-0.0212,-0.0112,-0.0108,-0.0118,-0.015,-0.015,-0.015,-0.015,-0.0149,-0.0648,-0.0654,-0.0701,-0.0718,-0.0723,-0.0745,-0.0631,-0.0525,-0.0427,-0.0383,-0.0226,-0.0224,-0.0209,-0.0203,-0.0214,-0.0269,-0.0269,-0.0269,-0.0269,-0.0681,-0.0684,-0.0768,-0.082,-0.0852,-0.0825,-0.0834,-0.065,-0.0429,-0.0294,-0.0293,-0.0279,-0.0274,-0.0261,-0.0254,-0.0264,-0.0333,-0.0333,-0.0333,-0.0701,-0.0736,-0.081,-0.0872,-0.0919,-0.0932,-0.0958,-0.0745,-0.0403,-0.0332,-0.0273,-0.0279,-0.0255,-0.0249,-0.0222,-0.0213,-0.0227,0,0]}],[{"header":{"parameterUnit":"m.s-1","parameterCategory":2,"la1":30.2992,"la2":30.254,"lo1":-89.0895,"lo2":-89.0443,"dy":0.0025,"dx":0.0025,"nx":19,"ny":19,"refTime":"2026-04-05T09:00:00:Z","depth":"4","parameterNumber":2,"parameterNumberName":"U-component_of_CURRENTS"},"data":[0,0,0,-0.1055,-0.1056,-0.1116,-0.1117,-0.1142,-0.1142,0,0,0,0,0,0,0,0,0,0,0,-0.1037,-0.1037,-0.1055,-0.1056,-0.1116,-0.1117,-0.1142,-0.1142,0,0,0,0,0,0,0,0,0,0,0,-0.1037,-0.1037,-0.1037,-0.1056,-0.1116,-0.1117,-0.1143,-0.1112,0,0,0,0,0,0,0,0,0,0,-0.1061,-0.1057,-0.1037,-0.1037,-0.1056,-0.1116,-0.1117,-0.1111,-0.1114,-0.1097,0,-0.1104,0,-0.1116,-0.1142,-0.1142,0,0,0,-0.1066,-0.1056,-0.1059,-0.1037,-0.1056,-0.1116,-0.1092,-0.1113,-0.1116,-0.11,-0.1105,-0.1106,-0.1117,-0.1142,-0.1142,-0.1182,-0.1183,0,0,-0.1063,-0.106,-0.1057,-0.1061,-0.1068,-0.109,-0.1094,-0.1116,-0.1123,-0.1105,-0.1107,-0.1117,-0.1142,-0.1142,-0.1182,-0.1183,0,0,0,-0.1046,-0.1058,-0.1063,-0.106,-0.1071,-0.1091,-0.1096,-0.1122,-0.112,-0.1107,-0.1117,-0.1142,-0.1142,-0.1181,-0.1182,-0.1249,0,0,0,-0.1045,-0.1047,-0.1061,-0.1062,-0.107,-0.1106,-0.1102,-0.1119,-0.1122,-0.1117,-0.1142,-0.1142,-0.1181,-0.1182,-0.1246,-0.1251,0,0,0,-0.1035,-0.1046,-0.1049,-0.1061,-0.1081,-0.1106,-0.1108,-0.1121,-0.1127,-0.1142,-0.1142,-0.1181,-0.1182,-0.1243,-0.1247,-0.1294,0,0,0,-0.1035,-0.1033,-0.1049,-0.1062,-0.108,-0.1119,-0.1108,-0.1156,-0.1176,-0.1142,-0.1181,-0.1182,-0.1242,-0.1245,-0.1292,-0.1125,0,0,0,-0.1027,-0.1032,-0.1041,-0.1056,-0.1082,-0.1112,-0.1166,-0.1194,-0.1183,-0.117,-0.1172,-0.1247,-0.1247,-0.1294,-0.1195,0,0,0,0,-0.1035,-0.1037,-0.1049,-0.1074,-0.1108,-0.1165,-0.1197,-0.1219,-0.1254,-0.1197,-0.1252,-0.1249,-0.1277,-0.1172,-0.1188,-0.1188,-0.1187,-0.1187,-0.1187,-0.0984,-0.102,-0.1045,-0.1093,-0.1137,-0.1212,-0.1263,-0.1298,-0.1282,-0.132,-0.1309,-0.1392,-0.1285,-0.1326,-0.1326,-0.1327,-0.1327,-0.1327,-0.1327,-0.0959,-0.0979,-0.1053,-0.1094,-0.1173,-0.1234,-0.1327,-0.1355,-0.1406,-0.1376,-0.1401,-0.1255,-0.1334,-0.1333,-0.1332,-0.1331,-0.133,-0.133,-0.133,-0.0913,-0.0938,-0.0982,-0.1071,-0.117,-0.1266,-0.135,-0.1414,-0.1452,-0.1485,-0.1376,-0.1434,-0.1423,-0.1509,-0.1509,-0.1509,-0.151,-0.151,-0.151,-0.0856,-0.0906,-0.0949,-0.1056,-0.1119,-0.1226,-0.1366,-0.141,-0.1479,-0.1417,-0.1503,-0.1453,-0.1447,-0.1433,-0.1514,-0.1513,-0.1513,-0.1512,-0.1512,-0.0812,-0.0845,-0.0891,-0.0947,-0.1085,-0.1148,-0.1306,-0.1365,-0.1408,-0.1394,-0.1385,-0.139,-0.1346,-0.1343,-0.1324,-0.1375,-0.1373,-0.1371,0,-0.0773,-0.0796,-0.0846,-0.0905,-0.098,-0.1101,-0.1134,-0.1216,-0.1278,-0.1233,-0.1399,-0.1385,-0.1388,-0.1335,-0.1329,-0.1304,0,0,0,-0.0748,-0.0765,-0.0776,-0.0847,-0.0923,-0.1016,-0.1136,-0.1127,-0.1268,-0.1267,-0.1325,-0.1337,-0.1445,-0.1526,-0.1471,-0.1464,-0.1439,0,0]},{"header":{"parameterUnit":"m.s-1","parameterCategory":2,"la1":30.2992,"la2":30.254,"lo1":-89.0895,"lo2":-89.0443,"dy":0.0025,"dx":0.0025,"nx":19,"ny":19,"refTime":"2026-04-05T09:00:00:Z","depth":"4","parameterNumber":3,"parameterNumberName":"V-component_of_CURRENTS"},"data":[0,0,0,0.0103,0.0104,0.0182,0.0182,0.0302,0.0303,0,0,0,0,0,0,0,0,0,0,0,0.0072,0.0073,0.0103,0.0104,0.0182,0.0182,0.0302,0.0303,0,0,0,0,0,0,0,0,0,0,0,0.0072,0.0073,0.0073,0.0105,0.0181,0.0182,0.0301,0.024,0,0,0,0,0,0,0,0,0,0,0.0164,0.013,0.0073,0.0073,0.0105,0.0181,0.0182,0.0237,0.0244,0.027,0,0.0273,0,0.0289,0.031,0.0311,0,0,0,0.0114,0.0124,0.0143,0.0073,0.0106,0.0181,0.015,0.0241,0.0249,0.0279,0.0274,0.0279,0.0291,0.0311,0.0312,0.0395,0.0395,0,0,0.011,0.0094,0.0137,0.0147,0.0115,0.0147,0.0152,0.0246,0.0251,0.0275,0.0282,0.0293,0.0312,0.0313,0.0395,0.0395,0,0,0,0.0091,0.009,0.0106,0.0142,0.0154,0.0149,0.0155,0.0247,0.0251,0.0283,0.0294,0.0313,0.0314,0.0395,0.0395,0.0298,0,0,0,0.0089,0.0079,0.0104,0.0096,0.0151,0.0199,0.0154,0.0245,0.0256,0.0294,0.0313,0.0315,0.0394,0.0395,0.03,0.0256,0,0,0,0.0071,0.0077,0.0082,0.0095,0.0124,0.0198,0.0208,0.0248,0.0262,0.0311,0.0315,0.0394,0.0395,0.0302,0.026,0.0242,0,0,0,0.0058,0.0058,0.0081,0.0085,0.0123,0.0161,0.0208,0.0242,0.0277,0.0313,0.0394,0.0395,0.0303,0.0263,0.0245,0.0202,0,0,0,0.0049,0.0056,0.0057,0.008,0.0097,0.0152,0.0175,0.0236,0.0292,0.0367,0.0369,0.0299,0.026,0.0243,0.0212,0,0,0,0,0.0049,0.0047,0.0058,0.0072,0.0109,0.013,0.02,0.0226,0.0277,0.0313,0.033,0.0309,0.03,0.0285,0.0395,0.0395,0.0395,0.0395,0.0395,0.0026,0.0037,0.0033,0.0051,0.007,0.0123,0.0139,0.0193,0.0254,0.0259,0.0252,0.0203,0.0185,0.0281,0.0281,0.028,0.028,0.028,0.028,0.0001,-0.0013,-0.0003,-0.0009,0.0011,0.0028,0.0081,0.0111,0.0148,0.02,0.0197,0.0211,0.0271,0.0273,0.0274,0.0275,0.0276,0.0276,0.0277,-0.0021,-0.0035,-0.0039,-0.0066,-0.0085,-0.0054,-0.0076,-0.0016,0.0058,0.0051,0.0071,0.0151,0.0134,0.0058,0.0058,0.0057,0.0057,0.0057,0.0057,-0.0057,-0.0063,-0.0107,-0.0132,-0.0172,-0.02,-0.0168,-0.0143,-0.0063,-0.0035,0.0031,0.0129,0.0136,0.0124,0.0052,0.0053,0.0054,0.0054,0.0054,-0.0109,-0.0114,-0.018,-0.0224,-0.0309,-0.0325,-0.0296,-0.0233,-0.0209,-0.0166,-0.0066,-0.0059,-0.0023,-0.0012,-0.0028,-0.0148,-0.0148,-0.0149,0,-0.0154,-0.0156,-0.0261,-0.0345,-0.0421,-0.0408,-0.04,-0.0347,-0.024,-0.0244,-0.0198,-0.0089,-0.0082,-0.0042,-0.0033,-0.0054,0,0,0,-0.0203,-0.0222,-0.031,-0.0382,-0.0477,-0.0439,-0.0399,-0.0378,-0.0258,-0.0234,-0.017,-0.0165,-0.005,0.0039,0.0113,0.0122,0.0106,0,0]}]]